User: anonymous   Login
Location: Fort Wayne
(41.1310°N, 85.1290°W)
Time: 07:36:38
(UTC-04:00)
Language:

Cosmos 2227 Rocket - Orbit

View from above orbital plane
View from above orbital plane
View from above satellite
View from above satellite

Ground track
Ground track

The orbit data is extracted from the following two-line orbital elements,

1 22285U 92093B   17082.90971351 -.00000188 +00000-0 -72625-4 0  9990
2 22285 071.0228 031.1698 0006534 260.8462 099.1922 14.15004358250195
Epoch (UTC): 23 March 2017 21:49:59
Eccentricity: 0.0006534
inclination: 71.0228°
perigee height: 837 km
apogee height: 847 km
right ascension of ascending node: 31.1698°
argument of perigee: 260.8462°
revolutions per day: 14.15004358
mean anomaly at epoch: 99.1922°
orbit number at epoch: 25019

The dashed part of the orbit path shows where the satellite is in the earth's shadow,  

DLR